Rafard, Brazil
Current Conditions -  °F | °C
As of 5:00 PM on Saturday 25 Oct 2014 (Local Time) from SBKP Reporting Station
Broken Clouds Broken Clouds  
Wind Chill: 75°   Ceiling: 2500
Heat Index: 75°   Visibility: 6mi
Dew Point: 63°   Wind: 6mph
Humidity: 65%   Direction: 340°NNW
Pressure: 29.97"   Gusts: NA
Location:  23.01°S, 47.53°W
Report Text: SBKP 251900Z 34005KT 9999 BKN025 24/17 Q1015
Loading
Personal Weather Stations






























Interactive Weather Map
Tropical Storm Tracking
New forecast layout! Learn more

10-Day Weather Forecast

Advertisements
Track Severe Weather on mobile